SCP
0 0 0 0 0 0 0 0 0 0 -0 -0 -0 -0 -0 0 0 0 -0 0 0 0 0 0 0 0 0 0 0 0 0 0 0 0 0 0 0 0 0 0 0 0 0
0 0 0 0 0 0 0 0 0 0 0 -0 -0 -0 -0 -0 0 0 0 -0 0 0 0 0 0 0 0 0 0 0 0 0 0 0 0 0 0 0 0 0 0 0 0
0 0 0 0 0 0 0 0 0 0 -0 -0 -0 -0 -0 -0 -0 0 -0 0 -0 0 0 0 0 0 0 0 0 0 0 0 0 0 0 0 0 0 0 0 0 0 0
0 0 0 0 0 0 0 0 0 0 0 0 -0 0 0 -0 -0 -0 0 0 0 -0 0 0 0 0 0 0 0 0 0 0 0 0 0 0 0 0 0 0 0 0 0
0 0 0 0 0 0 0 0 0 0 0 0 0 0 0 0 -0 -0 -0 0 0 -0 -0 0 0 0 0 0 0 0 0 0 0 0 0 0 0 0 0 0 0 0 0
0 0 0 0 0 0 0 0 0 0 0 0 0 0 0 0 0 0 0 0 0 0 -0 0 0 0 0 0 0 0 0 0 0 0 0 0 0 0 0 0 0 0 0
0 0 0 0 0 0 0 0 0 0 0 0 0 0 0 0 0 0 0 0 0 0 -0 -0 0 0 0 0 0 0 0 0 0 0 0 0 0 0 0 0 0 0 0
0 0 0 0 0 0 0 0 0 0 0 0 0 0 0 0 0 0 0 0 0 0 0 0 0 0 0 0 0 0 0 0 0 0 0 0 0 0 0 0 0 0 0
0 0 0 0 0 0 0 0 0 0 0 0 0 0 0 0 0 0 0 0 0 0 0 0 0 0 0 0 0 0 0 0 0 0 0 0 0 0 0 0 0 0 0
0 0 0 0 0 0 0 0 0 0 0 0 0 0 0 0 0 0 0 0 0 0 0 0 0 0 0 0 0 0 0 0 0 0 0 0 0 0 0 0 0 0 0
0 0 0 0 0 0 0 0 0 0 0 0 0 0 0 0 0 0 0 0 0 0 0 0 0 0 0 0 0 0 0 0 0 0 0 0 0 0 0 0 0 0 0
0 0 0 0 0 0 0 0 0 0 0 0 0 0 0 0 0 0 0 0 0 0 0 0 0 0 0 0 0 0 0 0 0 0 0 0 0 0 0 0 0 0 0
0 0 0 0 0 0 0 0 0 0 0 0 0 -0 -0 0 0 0 0 0 0 0 0 0 0 0 0 0 0 0 0 0 0 0 0 0 0 0 0 0 0 0 0
0 0 0 0 0 0 0 0 0 0 0 0 -0 0 -0 0 0 0 0 0 0 0 0 0 0 0 0 0 0 0 0 0 0 0 0 0 0 0 0 0 0 0 0
0 0 0 0 0 0 0 0 0 0 0 0 -0 -0 -0 -0 0 0 0 0 0 0 0 0 0 0 0 0 0 0 0 0 0 0 0 0 0 0 0 0 0 0 0
0 0 0 0 0 0 0 0 0 0 0 -0 0 0 0 0 0 -0 0 0 0 0 0 0 0 0 0 0 0 0 0 0 0 0 0 0 0 0 0 0 0 0 0
0 0 0 0 0 0 0 0 0 0 0 0 0 0 0 0 0 0 0 0 0 0 0 0 0 0 0 0 0 0 0 0 0 0 0 0 0 0 0 0 0 0 0
0 0 0 0 0 0 0 0 0 0 0 0 0 0 0 0 0 0 0 0 0 0 0 0 0 0 0 0 0 0 0 0 0 0 0 0 0 0 0 0 0 0 0
0 0 0 0 0 0 0 0 0 0 0 0 0 0 0 0 0 0 0 0 0 0 0 0 0 0 0 0 -0 -0 0 0 0 0 0 0 0 0 0 0 0 0 0
0 0 0 0 0 0 0 0 0 0 0 0 0 0 0 0 0 0 0 0 0 0 0 0 0 0 0 -0 0 -0 0 0 -0 0 0 0 0 0 0 0 0 0 0
0 0 0 0 0 0 0 0 0 0 0 -0 0 0 0 0 0 0 0 0 0 -0 -0 -0 -0 -0 -0 -0 -0 0 0 0 0 0 0 0 -0 -0 0 0 0 0 0
0 0 0 0 0 0 0 0 -0 0 0 0 -0 0 0 0 0 -0 -0 -0 -0 -0 -0 -0 -0 0 0 -0 -0 -0 0 0 0 0 0 0 0 0 0 0 0 0 0
0 0 0 0 0 0 0 0 0 -0 -0 -0 0 0 0 -0 -0 -0 -0 -0 -0 -0 -0 -0 -0 0 -0 0 -0 -0 -0 -0 0 0 0 0 0 0 0 0 0 0 0
0 0 0 0 0 0 0 0 0 -0 -0 -0 -0 -0 -0 -0 -0 0 0 0 0 0 0 0 -0 -0 -0 -0 -0 0 0 0 0 0 0 0 0 0 0 0 0 0 0
0 0 0 0 0 0 0 -0 -0 0 0 -0 -0 -0 -0 -0 -0 -0 -0 -0 -0 -0 -0 -0 0 -0 0 0 0 0 0 0 0 0 0 0 0 0 0 0 0 0 0
0 0 0 0 0 0 0 0 0 0 0 0 0 0 0 0 0 0 0 -0 -0 -0 -0 -0 -0 0 -0 -0 -0 -0 -0 0 0 0 0 0 0 0 0 0 0 0 0
Wind_Speed_500mb
20 16 24 28 32 41 53 58 67 76 79 87 99 101 94 82 72 68 71 79 101 128 135 131 122 115 115 111 116 111 106 102 98 95 80 72 72 79 78 75 73 83 74
24 27 23 33 66 83 83 86 86 89 96 104 94 82 88 96 95 79 80 68 72 82 135 127 127 124 116 117 114 121 109 110 106 97 90 61 65 73 77 82 86 86 80
34 48 64 89 98 89 87 80 81 84 87 93 100 93 82 86 95 92 86 77 68 75 130 139 130 129 120 125 122 126 119 117 109 106 74 51 33 76 74 74 75 76 78
57 74 94 85 76 72 79 89 99 105 101 89 85 86 92 83 87 90 87 84 70 89 54 133 113 122 126 128 130 126 120 122 118 104 88 95 75 75 46 72 72 72 76
64 75 74 73 72 78 83 89 83 86 89 70 75 86 87 82 77 81 87 85 84 70 89 73 129 145 133 137 128 135 127 125 120 118 112 86 67 94 72 72 79 76 75
79 68 67 69 81 78 83 87 78 75 70 74 74 75 75 78 83 85 89 86 84 75 83 99 107 135 141 136 141 127 143 135 122 128 125 124 104 93 98 76 92 90 80
67 75 81 79 78 78 82 80 76 80 78 72 72 75 80 82 68 67 70 77 76 75 70 79 74 146 136 141 139 133 139 142 134 129 117 122 125 115 99 94 82 88 69
67 73 73 76 74 78 77 76 77 81 75 71 72 71 69 70 70 67 71 77 77 69 53 58 59 122 139 147 142 134 142 144 141 128 132 125 126 123 114 99 96 61 59
68 73 77 77 80 77 78 75 73 73 70 67 65 69 66 63 62 64 61 66 69 63 53 55 79 85 124 137 134 130 139 144 131 130 133 132 129 116 120 107 100 88 69
72 74 74 75 77 73 77 72 69 68 66 61 58 59 56 53 57 61 52 57 58 53 55 56 60 73 115 127 129 128 131 126 126 129 125 128 118 120 123 101 98 89 77
71 75 75 76 74 79 76 75 71 67 61 60 45 43 44 45 47 58 46 47 49 45 49 56 65 65 84 108 112 110 103 108 114 120 115 116 114 116 108 84 72 66 54
63 71 76 75 76 81 81 77 71 66 54 40 19 22 29 29 34 43 45 45 42 44 55 55 68 57 70 87 97 97 77 94 93 94 102 109 101 79 69 70 60 58 52
67 75 75 76 78 82 80 74 66 60 48 27 16 16 22 26 29 34 31 36 39 43 43 57 51 28 57 82 72 82 80 71 72 82 76 66 64 65 70 69 65 57 49
65 68 74 74 76 77 75 72 64 52 43 26 15 17 22 25 25 21 28 36 44 38 56 55 51 35 42 53 54 48 51 51 52 53 52 57 66 65 68 63 61 51 53
65 67 73 72 72 73 71 67 57 49 38 27 14 7 3 9 16 29 37 45 41 43 51 54 53 52 51 47 48 51 51 53 53 53 59 62 65 60 61 55 57 60 60
60 64 69 66 66 65 64 61 54 45 34 25 24 18 20 26 32 36 43 51 52 54 51 50 52 53 50 45 42 46 51 51 53 64 63 63 59 54 53 50 47 42 41
58 64 63 60 58 56 53 53 48 41 38 33 28 31 34 38 47 50 53 59 58 59 58 54 50 49 45 32 34 38 48 61 66 68 65 63 61 60 58 51 44 35 29
51 55 56 53 52 50 49 43 43 43 43 43 37 38 40 46 53 56 61 63 63 62 61 59 59 61 49 40 47 54 65 67 67 65 66 65 61 52 45 38 35 37 35
39 44 47 48 47 47 48 47 45 44 46 47 46 44 48 54 58 66 69 71 77 76 75 71 69 69 65 56 58 61 65 67 65 60 53 48 44 37 31 35 37 36 35
33 39 41 43 46 47 48 51 53 49 49 44 44 46 54 61 67 69 74 77 80 84 79 77 70 65 64 53 54 55 60 62 58 51 42 36 35 36 34 31 31 31 30
23 28 34 43 46 45 45 53 51 52 44 40 41 47 52 58 62 66 69 72 75 77 77 75 69 66 60 57 51 47 44 44 46 44 44 40 36 34 31 28 24 22 22
13 20 26 34 37 40 43 49 52 44 41 42 44 46 47 51 54 57 63 65 66 70 71 69 67 61 55 48 42 37 31 29 25 27 29 29 27 25 26 25 22 19 18
7 14 19 24 30 35 38 42 44 38 39 39 43 44 44 46 49 51 54 57 56 58 58 57 56 50 42 37 31 27 23 21 19 19 20 20 20 19 18 18 19 23 25
6 6 12 14 21 26 31 38 36 33 32 37 40 39 39 44 45 44 43 43 43 42 41 40 38 35 30 23 19 15 12 12 12 16 17 17 17 20 24 27 27 25 21
16 10 5 5 10 15 19 23 26 24 24 28 31 31 31 31 33 35 34 32 36 30 28 27 23 19 17 13 10 8 5 5 10 15 19 19 19 20 21 23 25 27 28
24 20 15 11 7 6 8 12 17 19 17 16 19 20 19 20 20 19 21 23 21 19 18 16 14 11 12 10 9 8 8 11 13 18 20 22 24 24 25 27 29 30 30
Wind_Direction_500mb
281 256 299 297 292 288 290 288 287 287 291 297 298 295 292 286 282 283 262 262 234 225 226 213 213 211 213 210 206 203 204 196 200 197 197 194 195 194 201 207 212 204 200
294 306 305 304 310 302 297 295 293 290 290 294 294 288 286 286 283 280 278 274 255 254 217 220 209 210 207 205 204 205 200 200 202 197 189 176 186 189 190 193 192 198 203
352 329 321 318 314 303 301 296 293 292 291 288 286 282 277 272 274 275 277 276 264 252 220 215 206 206 207 206 212 209 209 201 198 204 190 169 188 189 193 193 193 193 195
330 323 321 316 309 301 294 292 291 293 292 288 284 273 269 274 273 274 274 269 263 246 230 209 206 203 207 210 215 215 215 212 202 199 198 201 198 181 190 197 198 197 198
331 326 320 311 304 304 301 298 298 290 291 283 274 272 272 271 272 271 272 267 264 253 250 243 219 209 209 211 213 218 214 218 213 211 200 200 200 199 192 195 199 203 205
330 322 319 313 311 309 306 303 299 293 287 282 278 272 272 270 267 265 267 266 264 264 250 250 233 207 207 213 216 217 219 219 219 219 214 212 209 202 202 199 201 205 206
332 329 324 320 316 313 313 311 306 298 297 288 279 273 269 261 262 261 262 260 259 259 254 247 245 203 215 215 217 217 221 218 220 219 218 220 220 220 210 209 196 199 207
330 327 322 321 319 318 320 319 313 305 300 290 281 276 270 266 258 259 259 257 256 257 254 247 252 205 212 212 214 218 219 222 223 224 219 230 220 222 224 217 207 184 195
332 332 329 324 323 322 322 321 317 311 303 292 279 272 269 265 256 251 254 252 252 252 246 241 237 226 210 215 214 220 223 223 223 227 222 224 225 228 227 227 225 215 191
333 334 329 327 330 326 333 332 329 321 314 301 283 269 262 259 259 240 247 250 249 246 238 236 229 228 205 211 217 220 218 222 224 223 220 224 223 228 227 222 215 215 214
333 331 334 334 336 341 342 341 340 333 326 319 284 262 258 258 257 231 244 242 241 228 236 231 223 218 216 216 210 214 218 221 218 218 225 222 226 227 226 210 212 211 210
329 336 340 341 345 349 350 350 347 342 340 335 292 263 255 252 242 242 249 236 232 221 246 220 218 219 224 236 213 214 231 225 222 217 219 221 220 217 215 213 207 198 193
338 343 344 350 353 354 354 354 354 350 346 340 324 277 258 251 240 246 241 214 213 213 220 188 179 183 222 213 216 224 217 217 227 225 222 218 217 219 208 198 186 186 203
343 345 349 356 359 358 357 357 358 359 355 350 324 287 268 257 251 220 199 199 204 205 202 199 193 195 215 215 207 211 222 217 213 212 214 214 212 204 185 182 187 197 173
346 348 353 358 3 1 2 4 5 6 8 2 14 34 169 176 170 169 164 162 172 165 155 164 168 175 183 188 194 194 191 191 185 188 185 183 184 185 182 186 174 170 165
345 351 359 3 6 7 8 10 12 18 22 34 51 72 100 119 131 147 151 149 147 139 141 142 146 159 164 160 176 183 171 172 168 165 163 160 163 165 164 160 154 153 157
355 1 3 7 10 13 15 21 23 31 43 54 68 83 105 116 127 132 132 126 124 126 123 126 137 138 135 145 157 159 152 153 152 151 152 154 155 152 147 146 147 146 172
6 8 9 13 18 20 23 31 39 46 55 65 74 87 100 104 109 115 113 113 115 114 114 116 117 117 115 133 142 136 141 144 148 150 152 154 152 151 148 138 151 172 174
12 14 16 21 26 31 37 37 47 55 65 71 81 89 98 105 108 107 108 111 112 113 113 112 113 113 123 129 134 140 142 142 140 140 143 143 138 133 150 166 170 172 175
20 23 25 30 35 36 44 49 50 54 62 71 83 96 101 104 105 108 110 113 112 111 113 115 118 122 125 130 134 136 136 134 134 134 135 140 148 156 163 171 176 177 173
29 31 34 39 43 46 49 56 57 60 64 72 83 92 98 102 105 109 110 111 111 113 112 112 113 114 116 118 120 122 126 132 138 142 151 157 164 165 166 168 172 175 182
43 45 45 51 53 52 54 60 61 62 67 74 77 82 88 94 100 103 106 107 109 110 111 112 112 111 114 118 123 126 129 133 139 149 162 167 165 167 175 180 183 191 199
63 59 61 64 65 63 61 63 66 66 71 77 81 85 91 95 100 104 108 111 114 116 120 122 122 120 121 124 124 126 132 140 149 160 170 174 175 179 185 195 204 213 218
171 101 76 77 76 73 69 68 68 68 74 81 86 88 92 95 95 95 98 100 102 104 105 107 110 116 122 124 124 128 141 157 170 181 189 189 189 195 205 214 220 225 234
213 200 173 119 92 84 79 77 77 72 70 79 85 90 93 96 102 106 103 102 104 100 100 104 103 101 110 117 125 135 163 194 194 206 207 212 217 228 235 240 244 244 244
219 215 212 204 177 134 114 99 90 87 78 81 91 92 91 93 94 93 105 111 110 107 108 113 117 125 140 151 163 177 195 215 222 230 233 232 237 242 245 247 251 256 262
Wind_Speed_850mb
20 16 24 28 32 41 53 58 67 76 79 87 99 101 94 82 72 68 71 79 101 128 135 131 122 115 115 111 116 111 106 102 98 95 80 72 72 79 78 75 73 83 74
24 27 23 33 66 83 83 86 86 89 96 104 94 82 88 96 95 79 80 68 72 82 135 127 127 124 116 117 114 121 109 110 106 97 90 61 65 73 77 82 86 86 80
34 48 64 89 98 89 87 80 81 84 87 93 100 93 82 86 95 92 86 77 68 75 130 139 130 129 120 125 122 126 119 117 109 106 74 51 33 76 74 74 75 76 78
57 74 94 85 76 72 79 89 99 105 101 89 85 86 92 83 87 90 87 84 70 89 54 133 113 122 126 128 130 126 120 122 118 104 88 95 75 75 46 72 72 72 76
64 75 74 73 72 78 83 89 83 86 89 70 75 86 87 82 77 81 87 85 84 70 89 73 129 145 133 137 128 135 127 125 120 118 112 86 67 94 72 72 79 76 75
79 68 67 69 81 78 83 87 78 75 70 74 74 75 75 78 83 85 89 86 84 75 83 99 107 135 141 136 141 127 143 135 122 128 125 124 104 93 98 76 92 90 80
67 75 81 79 78 78 82 80 76 80 78 72 72 75 80 82 68 67 70 77 76 75 70 79 74 146 136 141 139 133 139 142 134 129 117 122 125 115 99 94 82 88 69
67 73 73 76 74 78 77 76 77 81 75 71 72 71 69 70 70 67 71 77 77 69 53 58 59 122 139 147 142 134 142 144 141 128 132 125 126 123 114 99 96 61 59
68 73 77 77 80 77 78 75 73 73 70 67 65 69 66 63 62 64 61 66 69 63 53 55 79 85 124 137 134 130 139 144 131 130 133 132 129 116 120 107 100 88 69
72 74 74 75 77 73 77 72 69 68 66 61 58 59 56 53 57 61 52 57 58 53 55 56 60 73 115 127 129 128 131 126 126 129 125 128 118 120 123 101 98 89 77
71 75 75 76 74 79 76 75 71 67 61 60 45 43 44 45 47 58 46 47 49 45 49 56 65 65 84 108 112 110 103 108 114 120 115 116 114 116 108 84 72 66 54
63 71 76 75 76 81 81 77 71 66 54 40 19 22 29 29 34 43 45 45 42 44 55 55 68 57 70 87 97 97 77 94 93 94 102 109 101 79 69 70 60 58 52
67 75 75 76 78 82 80 74 66 60 48 27 16 16 22 26 29 34 31 36 39 43 43 57 51 28 57 82 72 82 80 71 72 82 76 66 64 65 70 69 65 57 49
65 68 74 74 76 77 75 72 64 52 43 26 15 17 22 25 25 21 28 36 44 38 56 55 51 35 42 53 54 48 51 51 52 53 52 57 66 65 68 63 61 51 53
65 67 73 72 72 73 71 67 57 49 38 27 14 7 3 9 16 29 37 45 41 43 51 54 53 52 51 47 48 51 51 53 53 53 59 62 65 60 61 55 57 60 60
60 64 69 66 66 65 64 61 54 45 34 25 24 18 20 26 32 36 43 51 52 54 51 50 52 53 50 45 42 46 51 51 53 64 63 63 59 54 53 50 47 42 41
58 64 63 60 58 56 53 53 48 41 38 33 28 31 34 38 47 50 53 59 58 59 58 54 50 49 45 32 34 38 48 61 66 68 65 63 61 60 58 51 44 35 29
51 55 56 53 52 50 49 43 43 43 43 43 37 38 40 46 53 56 61 63 63 62 61 59 59 61 49 40 47 54 65 67 67 65 66 65 61 52 45 38 35 37 35
39 44 47 48 47 47 48 47 45 44 46 47 46 44 48 54 58 66 69 71 77 76 75 71 69 69 65 56 58 61 65 67 65 60 53 48 44 37 31 35 37 36 35
33 39 41 43 46 47 48 51 53 49 49 44 44 46 54 61 67 69 74 77 80 84 79 77 70 65 64 53 54 55 60 62 58 51 42 36 35 36 34 31 31 31 30
23 28 34 43 46 45 45 53 51 52 44 40 41 47 52 58 62 66 69 72 75 77 77 75 69 66 60 57 51 47 44 44 46 44 44 40 36 34 31 28 24 22 22
13 20 26 34 37 40 43 49 52 44 41 42 44 46 47 51 54 57 63 65 66 70 71 69 67 61 55 48 42 37 31 29 25 27 29 29 27 25 26 25 22 19 18
7 14 19 24 30 35 38 42 44 38 39 39 43 44 44 46 49 51 54 57 56 58 58 57 56 50 42 37 31 27 23 21 19 19 20 20 20 19 18 18 19 23 25
6 6 12 14 21 26 31 38 36 33 32 37 40 39 39 44 45 44 43 43 43 42 41 40 38 35 30 23 19 15 12 12 12 16 17 17 17 20 24 27 27 25 21
16 10 5 5 10 15 19 23 26 24 24 28 31 31 31 31 33 35 34 32 36 30 28 27 23 19 17 13 10 8 5 5 10 15 19 19 19 20 21 23 25 27 28
24 20 15 11 7 6 8 12 17 19 17 16 19 20 19 20 20 19 21 23 21 19 18 16 14 11 12 10 9 8 8 11 13 18 20 22 24 24 25 27 29 30 30
Wind_Direction_850mb
281 256 299 297 292 288 290 288 287 287 291 297 298 295 292 286 282 283 262 262 234 225 226 213 213 211 213 210 206 203 204 196 200 197 197 194 195 194 201 207 212 204 200
294 306 305 304 310 302 297 295 293 290 290 294 294 288 286 286 283 280 278 274 255 254 217 220 209 210 207 205 204 205 200 200 202 197 189 176 186 189 190 193 192 198 203
352 329 321 318 314 303 301 296 293 292 291 288 286 282 277 272 274 275 277 276 264 252 220 215 206 206 207 206 212 209 209 201 198 204 190 169 188 189 193 193 193 193 195
330 323 321 316 309 301 294 292 291 293 292 288 284 273 269 274 273 274 274 269 263 246 230 209 206 203 207 210 215 215 215 212 202 199 198 201 198 181 190 197 198 197 198
331 326 320 311 304 304 301 298 298 290 291 283 274 272 272 271 272 271 272 267 264 253 250 243 219 209 209 211 213 218 214 218 213 211 200 200 200 199 192 195 199 203 205
330 322 319 313 311 309 306 303 299 293 287 282 278 272 272 270 267 265 267 266 264 264 250 250 233 207 207 213 216 217 219 219 219 219 214 212 209 202 202 199 201 205 206
332 329 324 320 316 313 313 311 306 298 297 288 279 273 269 261 262 261 262 260 259 259 254 247 245 203 215 215 217 217 221 218 220 219 218 220 220 220 210 209 196 199 207
330 327 322 321 319 318 320 319 313 305 300 290 281 276 270 266 258 259 259 257 256 257 254 247 252 205 212 212 214 218 219 222 223 224 219 230 220 222 224 217 207 184 195
332 332 329 324 323 322 322 321 317 311 303 292 279 272 269 265 256 251 254 252 252 252 246 241 237 226 210 215 214 220 223 223 223 227 222 224 225 228 227 227 225 215 191
333 334 329 327 330 326 333 332 329 321 314 301 283 269 262 259 259 240 247 250 249 246 238 236 229 228 205 211 217 220 218 222 224 223 220 224 223 228 227 222 215 215 214
333 331 334 334 336 341 342 341 340 333 326 319 284 262 258 258 257 231 244 242 241 228 236 231 223 218 216 216 210 214 218 221 218 218 225 222 226 227 226 210 212 211 210
329 336 340 341 345 349 350 350 347 342 340 335 292 263 255 252 242 242 249 236 232 221 246 220 218 219 224 236 213 214 231 225 222 217 219 221 220 217 215 213 207 198 193
338 343 344 350 353 354 354 354 354 350 346 340 324 277 258 251 240 246 241 214 213 213 220 188 179 183 222 213 216 224 217 217 227 225 222 218 217 219 208 198 186 186 203
343 345 349 356 359 358 357 357 358 359 355 350 324 287 268 257 251 220 199 199 204 205 202 199 193 195 215 215 207 211 222 217 213 212 214 214 212 204 185 182 187 197 173
346 348 353 358 3 1 2 4 5 6 8 2 14 34 169 176 170 169 164 162 172 165 155 164 168 175 183 188 194 194 191 191 185 188 185 183 184 185 182 186 174 170 165
345 351 359 3 6 7 8 10 12 18 22 34 51 72 100 119 131 147 151 149 147 139 141 142 146 159 164 160 176 183 171 172 168 165 163 160 163 165 164 160 154 153 157
355 1 3 7 10 13 15 21 23 31 43 54 68 83 105 116 127 132 132 126 124 126 123 126 137 138 135 145 157 159 152 153 152 151 152 154 155 152 147 146 147 146 172
6 8 9 13 18 20 23 31 39 46 55 65 74 87 100 104 109 115 113 113 115 114 114 116 117 117 115 133 142 136 141 144 148 150 152 154 152 151 148 138 151 172 174
12 14 16 21 26 31 37 37 47 55 65 71 81 89 98 105 108 107 108 111 112 113 113 112 113 113 123 129 134 140 142 142 140 140 143 143 138 133 150 166 170 172 175
20 23 25 30 35 36 44 49 50 54 62 71 83 96 101 104 105 108 110 113 112 111 113 115 118 122 125 130 134 136 136 134 134 134 135 140 148 156 163 171 176 177 173
29 31 34 39 43 46 49 56 57 60 64 72 83 92 98 102 105 109 110 111 111 113 112 112 113 114 116 118 120 122 126 132 138 142 151 157 164 165 166 168 172 175 182
43 45 45 51 53 52 54 60 61 62 67 74 77 82 88 94 100 103 106 107 109 110 111 112 112 111 114 118 123 126 129 133 139 149 162 167 165 167 175 180 183 191 199
63 59 61 64 65 63 61 63 66 66 71 77 81 85 91 95 100 104 108 111 114 116 120 122 122 120 121 124 124 126 132 140 149 160 170 174 175 179 185 195 204 213 218
171 101 76 77 76 73 69 68 68 68 74 81 86 88 92 95 95 95 98 100 102 104 105 107 110 116 122 124 124 128 141 157 170 181 189 189 189 195 205 214 220 225 234
213 200 173 119 92 84 79 77 77 72 70 79 85 90 93 96 102 106 103 102 104 100 100 104 103 101 110 117 125 135 163 194 194 206 207 212 217 228 235 240 244 244 244
219 215 212 204 177 134 114 99 90 87 78 81 91 92 91 93 94 93 105 111 110 107 108 113 117 125 140 151 163 177 195 215 222 230 233 232 237 242 245 247 251 256 262